Volver al catálogo

FENGYUN 1C DEB

ActivoSSO
NORAD 31732·DEBRIS·🇨🇳 China

Lanzado May 10, 1999 desde Taiyuan Satellite Launch Center

Loading…

Próximos Pases (próximas 24 horas)

TLE

ActualizadoSource: Space-Track

Época: Sep 12, 2026, 12:46 UTC

1 31732U 99025CEF 26255.53263135  .00000311  00000-0  18889-3 0  9991
2 31732  98.5463 283.0267 0040281 181.9080 178.1946 14.12544168681954

Sigue FENGYUN 1C DEB en tiempo real con AllMySat

Download on the App Store